Overview Statistics Trail Chart Weather Telemetry Raw packets
 

This is the latest recevied weather packets stored in our database for station/object HS5AU-13. If no packets are shown the sender has not sent any weather packets the latest 10 day(s).

<< 1 2 3 4 5 6 >>
Time Temp. Humidity Pressure Rain* Wind** Luminosity Snow
1788570906 23.89° C 95% 1004.4 hPa 0 mm - 443 W/m² -
1788570306 23.89° C 94% 1004.8 hPa 0 mm - 422 W/m² -
1788569706 23.89° C 94% 1005.1 hPa 0 mm - 390 W/m² -
1788569106 23.89° C 95% 1004.3 hPa 0 mm - 344 W/m² -
1788568506 23.33° C 96% 1003.9 hPa 0 mm - 301 W/m² -
1788567906 23.33° C 97% 1003.4 hPa 0 mm - 256 W/m² -
1788567306 22.78° C 98% 1003.1 hPa 0 mm - 202 W/m² -
1788566706 22.78° C 99% 1002.7 hPa 0 mm - 153 W/m² -
1788566106 22.22° C 99% 1003.3 hPa 0 mm - 102 W/m² -
1788565506 22.22° C 99% 1003 hPa 0 mm - 52 W/m² -
1788564906 22.22° C 99% 1002.8 hPa 0 mm - 16 W/m² -
1788564306 21.67° C 99% 1003.2 hPa 0 mm - 9 W/m² -
1788563706 21.67° C 99% 1004.6 hPa 0 mm - 5 W/m² -
1788563106 21.67° C 99% 1005.5 hPa 0 mm - 2 W/m² -
1788562506 21.11° C 99% 1005.8 hPa 0 mm - 2 W/m² -
1788561906 21.67° C 99% 1006 hPa 0 mm - 2 W/m² -
1788561306 21.67° C 99% 1005.9 hPa 0 mm - 2 W/m² -
1788560706 21.67° C 99% 1005.8 hPa 0 mm - 2 W/m² -
1788560106 21.67° C 99% 1005.7 hPa 0 mm - 2 W/m² -
1788559506 21.67° C 99% 1005.5 hPa 0 mm - 2 W/m² -
1788558906 21.67° C 99% 1005.2 hPa 0 mm - 2 W/m² -
1788558306 21.67° C 99% 1005 hPa 0 mm - 2 W/m² -
1788557706 21.67° C 99% 1004.9 hPa 0 mm - 2 W/m² -
1788557106 21.67° C 99% 1004.7 hPa 0 mm - 2 W/m² -
1788556506 21.67° C 99% 1004.6 hPa 0 mm - 2 W/m² -

* Rain latest hour (hover to see other rain measurements)
** Current wind speed in m/s (hover to see current wind gust speed)